Flag for Andorra Weather past 2 weeks in Andorra La Vella, Andorra

Now
54 °F

Clear.


Feels Like: 50 °F
Forecast: 40 / 65 °F
Wind: 12 mph from East

Location: Carcassonne Airport

Current Time: Apr 22, 2015 at 4:38:13 AM

Latest Report: Apr 22, 2015 at 4:00 AM


Visibility: N/A

Pressure: 30.18 "Hg

Humidity: 88%

Dew point: 50 °F

Location of Andorra La VellaLocation

Historic Weather in Andorra La Vella — Graph

°F

Andorra La Vella temperature yesterday

Maximum temperature yesterday: 75 °F (at 4:00 PM)
Minimum temperature yesterday: 46 °F (at 6:30 AM)
Average temperature yesterday: 61 °F

Past Weeks' High & Low Weather Summary

 TemperatureHumidityPressure
High82 °F (Apr 14, 3:00 PM)100% (Apr 12, 8:00 AM)30.42 "Hg (Apr 12, 8:00 AM)
Low34 °F (Apr 7, 7:00 AM)17% (Apr 14, 6:30 PM)29.83 "Hg (Apr 18, 5:30 PM)
Average58 °F68%30.19 "Hg
* Reported Apr 7 3:00 AM — Apr 22 3:30 AM, Andorra La Vella, Weather by CustomWeather, © 2015

Note: Actual official high and low records may vary slightly from our data, if they occured in-between our weather recording intervals... More about our weather records

Advertising

Andorra La Vella weather history for previous 24 hours

 ConditionsComfort  
Time TempWeatherWind HumidityBarometerVisibility
3:30 AM
Wed, Apr 22
54 °FClear.12 mph88%30.18 "Hg4 mi
3:00 AM54 °FClear.13 mph88%30.18 "HgN/A
2:30 AM54 °FClear.10 mph88%30.21 "HgN/A
2:00 AM55 °FClear.14 mph82%30.21 "HgN/A
1:30 AM55 °FClear.10 mph82%30.21 "HgN/A
12:30 AM57 °FClear.10 mph72%30.21 "HgN/A
12:00 AM55 °FClear.12 mph77%30.21 "HgN/A
11:00 PM
Tue, Apr 21
59 °FClear.10 mph68%30.24 "HgN/A
10:30 PM59 °FClear.10 mph68%30.21 "HgN/A
10:00 PM61 °FClear.10 mph63%30.21 "HgN/A
9:30 PM63 °FClear.12 mph59%30.21 "HgN/A
9:00 PM64 °FClear.9 mph49%30.21 "HgN/A
8:30 PM66 °FClear.12 mph46%30.18 "HgN/A
8:00 PM68 °FClear.14 mph43%30.18 "HgN/A
7:30 PM70 °FClear.15 mph38%30.18 "HgN/A
7:00 PM72 °FClear.15 mph31%30.18 "HgN/A
6:30 PM73 °FClear.13 mph29%30.18 "HgN/A
6:00 PM73 °FClear.16 mph31%30.18 "HgN/A
5:30 PM73 °FClear.13 mph33%30.18 "HgN/A
5:00 PM73 °FClear.14 mph33%30.18 "HgN/A
4:30 PM73 °FClear.14 mph36%30.18 "HgN/A
4:00 PM75 °FClear.15 mph36%30.18 "HgN/A
3:30 PM73 °FClear.15 mph38%30.21 "HgN/A
3:00 PM73 °FClear.12 mph41%30.21 "HgN/A
2:30 PM73 °FClear.12 mph41%30.21 "HgN/A
2:00 PM72 °FClear.9 mph47%30.21 "HgN/A
1:30 PM72 °FClear.9 mph47%30.24 "HgN/A
1:00 PM72 °FClear.3 mph47%30.24 "HgN/A
12:30 PM70 °FClear.2 mph46%30.24 "HgN/A
12:00 PM68 °FClear.2 mph53%30.24 "HgN/A
11:30 AM66 °FClear.2 mph56%30.24 "HgN/A
11:00 AM64 °FClear.5 mph64%30.24 "HgN/A
10:30 AM61 °FClear.3 mph68%30.24 "HgN/A
10:00 AM59 °FCool.1 mph72%30.24 "HgN/A
9:30 AM57 °FClear.1 mph77%30.24 "HgN/A
9:00 AM54 °FClear.No wind82%30.24 "HgN/A
8:30 AM52 °FClear.1 mph88%30.24 "HgN/A
8:00 AM50 °FClear.1 mph94%30.24 "HgN/A
7:30 AM46 °FClear.3 mph100%30.21 "HgN/A
7:00 AM46 °FClear.3 mph93%30.21 "HgN/A
6:30 AM46 °FClear.3 mph93%30.21 "HgN/A
6:00 AM48 °FClear.3 mph94%30.21 "HgN/A
5:30 AM48 °FClear.2 mph94%30.21 "HgN/A
4:30 AM48 °FClear.2 mph94%30.21 "HgN/A
4:00 AM48 °FClear.2 mph94%30.21 "HgN/A
Weather by CustomWeather, © 2015

See weather overviewHow to use our weather pages